Tracking 18980 objects as of 19-Feb-2018
HD Live streaming from Space Station
objects crossing your sky now

FENGYUN 1C DEB

Track FENGYUN 1C DEB now!
10-day predictions


NORAD ID: 29878
Int'l Code: 1999-025FY
Perigee: 707.2 km
Apogee: 888.8 km
Inclination: 97.0 °
Period: 100.7 minutes
Semi major axis: 7169 km
RCS: 0.0385 m2 (small)
Launch date: May 10, 1999
Source: People's Republic of China (PRC)
Launch site: Taiyaun Space Center, China (TSC)

Note: This is SATELLITE DEBRIS
aabbcc
Your satellite tracking list
Your tracking list is empty




NASA's NSSDC Master Catalog

Two Line Element Set (TLE):
1 29878U 99025FY  18050.01837768  .00002024  00000-0  72622-3 0  9993
2 29878  97.0165 333.0775 0126623  99.6604 261.8913 14.30257463574951
Source of the keplerian elements: AFSPC